Temperature
17 17 17 17 17 17 17 17 17 17 17 17 17 17 16 16 16 16 16 16 15 15 15 15 15 15 15 15 15 15 15 15 16 16 16 16 16 16 16 16 16 16 16
17 17 17 17 17 17 17 17 16 16 16 17 16 16 16 16 16 16 16 16 15 15 15 15 15 15 15 15 15 15 15 15 15 15 16 16 16 16 16 16 16 15 15
17 17 17 17 17 17 17 16 16 16 16 16 16 16 16 16 16 16 16 15 15 15 15 15 15 15 15 15 15 15 15 15 15 15 15 15 15 15 15 15 15 15 15
17 17 16 16 17 17 16 16 16 16 16 16 16 16 16 16 16 16 16 15 15 15 15 15 15 15 15 15 15 15 15 14 14 14 15 15 15 15 15 15 15 15 15
17 16 16 16 16 16 16 16 16 16 16 16 16 16 16 16 16 16 16 15 15 15 15 15 15 15 15 15 14 14 14 14 14 14 14 14 14 14 14 14 14 14 14
17 16 16 16 16 16 16 16 16 16 16 16 16 16 16 16 16 16 16 15 15 15 15 15 15 15 15 14 14 14 14 14 14 14 14 14 14 14 14 14 14 14 14
17 17 16 16 16 16 16 16 16 16 16 16 16 16 16 16 16 16 16 15 15 15 15 15 15 15 15 14 14 14 14 14 14 14 14 14 14 14 13 13 13 13 13
17 17 16 16 16 16 16 16 16 16 16 16 16 16 16 16 16 16 15 15 15 15 15 15 15 14 14 14 14 14 14 14 14 14 14 14 13 13 13 13 13 13 13
17 17 17 16 16 16 16 16 16 16 16 16 16 15 15 15 15 15 15 15 15 15 15 14 14 14 14 14 13 13 13 14 13 13 13 13 13 13 13 12 12 12 12
16 16 16 16 16 16 16 16 16 15 15 15 15 15 15 15 15 15 15 15 14 14 14 14 14 14 14 13 13 13 13 13 13 13 13 13 13 12 12 12 12 11 11
16 16 16 16 16 16 16 16 15 15 15 15 15 15 15 15 14 14 14 14 14 14 14 14 13 13 13 13 13 13 13 13 12 12 12 12 12 12 11 11 11 11 11
16 16 16 16 16 16 15 15 15 15 15 14 14 14 14 14 14 14 14 14 13 13 13 13 13 12 12 12 12 12 12 12 12 12 11 11 11 11 11 10 10 10 10
15 15 15 15 15 15 15 14 14 14 14 14 13 13 13 13 13 13 13 13 13 12 12 12 12 12 12 11 11 11 11 11 11 11 10 10 10 10 10 9 9 9 9
15 15 14 14 14 14 14 14 14 13 13 13 13 13 12 12 12 12 12 12 12 11 11 11 11 11 11 10 10 10 10 10 10 9 9 9 9 9 9 9 9 8 8
14 14 14 14 13 13 13 13 13 12 12 12 12 12 12 12 11 11 11 11 11 11 11 11 10 10 10 10 10 9 9 9 9 9 9 8 8 8 8 8 8 8 7
13 13 13 13 13 12 12 12 11 11 11 11 11 11 11 11 11 11 11 11 11 10 10 10 10 9 9 9 9 8 8 8 8 8 8 8 7 7 7 7 7 7 7
13 13 12 12 12 12 12 12 11 10 11 10 10 10 10 10 10 10 10 10 10 10 10 9 9 8 8 8 8 8 7 7 7 7 7 7 7 7 6 6 6 6 6
12 12 12 12 11 11 11 11 11 10 10 10 9 9 9 9 9 9 9 9 9 9 8 8 8 7 7 7 7 7 7 6 6 6 6 6 6 6 6 6 5 5 5
12 11 11 11 11 11 11 10 10 10 9 9 9 9 8 8 8 8 8 8 8 8 7 7 7 7 6 6 6 6 6 6 6 6 5 5 5 5 5 5 5 4 4
11 11 11 10 10 10 10 10 9 9 9 9 8 8 8 8 8 8 7 7 7 6 6 6 6 6 6 6 6 5 5 5 5 5 5 5 5 4 4 4 4 4 4
10 10 10 10 10 9 9 9 9 8 8 8 7 7 7 7 7 6 6 6 6 6 5 5 5 5 5 5 5 5 5 4 4 4 4 4 4 4 4 3 3 3 3
10 10 9 9 9 8 8 8 8 7 7 7 7 6 6 6 6 6 5 5 5 5 5 5 5 5 5 4 4 4 4 4 4 3 3 3 3 3 3 3 3 3 3
9 9 9 8 8 8 7 7 7 7 6 6 6 6 5 5 5 5 5 4 4 4 4 4 4 4 4 4 4 3 3 3 3 3 3 3 3 3 2 2 2 2 2
8 8 8 8 7 7 7 6 6 6 6 5 5 5 5 4 4 4 4 4 4 4 4 4 3 3 3 3 3 3 3 3 2 2 2 2 2 2 2 2 2 2 2
8 7 7 7 6 6 6 6 5 5 5 5 4 4 4 4 4 4 4 3 3 3 3 3 3 3 3 2 2 2 2 2 2 2 2 2 2 2 2 2 2 2 2
7 7 6 6 6 5 5 5 5 4 4 4 4 4 3 3 3 3 3 3 3 3 3 3 2 2 2 2 2 2 2 2 2 2 2 2 2 2 2 1 1 1 1
Wind_Speed
8 8 8 9 9 10 10 11 11 10 10 11 11 10 9 9 9 8 7 7 7 6 5 6 6 5 4 4 3 3 4 4 4 3 2 2 2 3 3 5 7 8 9
6 6 7 8 9 10 10 11 11 11 10 10 10 10 10 9 9 9 9 9 8 8 7 6 6 5 5 4 4 4 4 4 4 4 2 2 3 3 3 3 5 6 8
5 6 6 7 8 9 9 10 10 10 10 10 10 10 10 9 9 9 9 9 9 9 8 8 7 6 6 5 5 5 4 4 4 4 3 2 2 2 2 3 3 4 6
5 6 6 7 7 8 8 8 9 10 10 10 9 9 9 9 9 9 9 8 8 8 8 8 8 8 7 7 6 6 5 4 4 3 3 3 3 2 2 3 3 3 4
4 5 5 5 6 6 6 7 8 8 9 8 8 8 8 8 8 9 9 9 9 8 7 7 7 8 9 8 6 6 6 5 4 4 4 3 3 2 3 2 4 4 4
4 4 4 5 6 6 6 6 6 6 6 7 7 7 7 6 8 11 10 8 7 7 7 6 5 6 8 9 9 8 8 7 6 5 5 5 5 5 4 4 3 3 4
4 4 4 5 6 6 7 7 6 5 5 5 5 6 6 5 7 9 10 7 6 6 6 5 5 5 6 5 6 7 8 9 9 7 7 7 6 6 4 5 5 5 6
4 4 4 5 5 5 6 6 6 5 5 4 4 4 4 3 6 7 8 6 5 5 5 5 5 4 4 5 4 4 5 6 8 7 7 7 7 6 5 5 5 5 6
3 3 4 5 5 6 6 5 5 5 5 4 4 4 3 1 3 6 7 4 4 3 3 3 3 3 3 5 4 5 5 5 5 7 7 7 7 6 5 3 3 4 5
2 2 3 4 5 6 6 5 5 5 5 5 4 3 3 1 2 2 6 4 4 3 2 1 2 2 2 2 4 4 4 4 3 2 2 3 3 4 3 4 5 5 5
3 4 4 4 5 5 5 5 6 6 6 5 5 4 4 3 4 4 4 3 4 3 1 1 1 2 2 1 2 2 3 2 1 0 1 2 2 2 2 2 3 4 5
6 6 6 6 5 6 7 6 6 7 7 6 5 5 4 5 6 6 7 5 4 4 2 1 2 4 4 3 2 1 1 1 1 1 2 2 3 3 3 3 3 3 5
9 9 8 9 8 8 8 7 7 6 6 6 5 5 5 5 5 8 8 7 7 5 4 6 7 7 6 5 6 5 3 3 3 2 2 3 3 3 3 3 3 4 4
11 10 9 10 10 10 9 7 7 6 6 6 6 5 5 4 4 4 4 5 6 5 4 6 8 9 7 6 6 5 4 4 3 2 2 3 3 3 4 3 3 4 4
11 10 10 10 10 11 11 10 9 8 6 6 5 5 5 5 4 5 5 4 4 4 5 6 6 6 6 6 5 5 5 4 4 3 3 3 4 4 4 3 3 3 3
10 9 8 8 9 9 10 12 17 14 17 15 11 9 7 7 8 10 11 11 10 9 8 6 6 5 5 5 5 5 5 5 4 4 4 4 4 4 4 4 3 3 4
10 9 8 8 8 8 8 9 10 12 16 17 15 14 12 11 12 12 12 13 12 11 8 6 5 5 4 4 4 4 4 4 4 4 4 4 4 4 4 5 5 5 5
10 11 9 8 7 8 8 8 8 8 8 8 11 14 14 13 13 12 10 11 10 9 7 6 5 4 4 4 4 4 4 5 5 5 4 4 4 4 4 5 5 5 6
10 8 8 8 8 8 9 9 9 9 9 7 7 8 11 11 13 13 11 8 7 6 6 6 5 4 4 4 4 4 4 4 5 5 5 5 5 5 5 5 5 7 6
10 14 11 9 9 9 9 9 9 8 8 8 7 6 5 7 8 8 8 7 6 5 5 5 4 4 4 4 4 4 4 5 5 5 5 5 5 5 5 6 6 6 6
9 10 13 10 9 9 9 9 8 8 8 8 7 7 8 7 7 7 6 5 5 4 4 4 4 4 4 4 4 5 5 5 5 5 5 5 5 5 5 6 6 7 7
8 9 9 9 9 9 9 8 8 8 8 8 6 7 10 7 6 6 5 5 4 4 4 3 3 4 4 4 4 4 5 5 5 5 5 5 6 6 6 6 6 7 7
9 10 10 9 9 10 9 8 8 8 7 7 6 6 6 6 5 5 5 5 5 5 5 5 4 5 6 6 6 5 5 5 5 6 6 6 6 6 6 7 8 8 8
9 10 9 8 8 8 8 8 7 7 7 7 6 6 5 5 5 5 5 5 5 6 6 6 6 7 9 8 7 7 7 8 8 7 7 6 6 6 6 7 7 8 8
9 9 8 8 7 7 7 7 7 7 6 6 5 5 5 5 5 5 5 5 5 6 7 7 6 7 8 9 9 9 12 12 11 9 7 6 6 7 7 7 7 8 8
8 8 7 7 7 7 7 6 6 6 5 5 5 4 5 5 5 5 5 5 5 5 6 6 8 8 9 9 11 13 14 14 13 12 8 6 6 6 7 6 8 7 8
Wind_Direction
189 191 192 192 191 188 190 190 188 185 181 180 181 182 184 186 182 182 188 184 187 192 192 192 204 195 197 198 192 189 193 186 220 260 253 265 260 264 267 250 250 250 253
182 184 188 185 187 191 193 190 184 183 183 181 179 183 189 190 187 188 194 191 190 193 197 196 207 199 200 200 195 199 200 196 205 241 258 258 252 262 267 265 261 256 253
174 178 179 179 183 188 188 182 180 182 181 179 181 188 191 192 192 194 195 195 198 199 198 201 208 199 207 206 204 207 208 203 203 221 247 252 265 270 271 272 271 266 264
162 174 178 181 180 180 180 177 178 180 179 181 187 191 193 193 195 196 196 198 202 204 203 204 206 203 208 207 209 211 205 201 200 216 242 254 259 266 255 266 279 270 272
154 165 175 173 166 162 163 169 172 175 178 180 183 189 191 192 200 197 197 200 201 202 203 206 211 209 210 208 210 208 201 204 207 219 237 243 249 244 248 249 264 280 275
152 165 161 158 157 159 162 163 167 170 170 171 182 187 190 199 199 195 194 197 197 200 205 210 216 218 219 216 216 209 201 207 214 218 231 238 247 243 243 244 254 271 280
146 146 152 159 163 163 162 160 166 168 164 168 179 180 187 195 190 191 191 189 194 200 203 206 217 221 213 219 221 220 221 222 214 214 231 240 245 236 230 243 241 247 257
144 150 154 156 159 156 155 159 159 153 156 161 161 169 174 190 185 185 180 181 184 193 199 204 212 228 228 217 223 230 238 239 230 227 234 243 247 242 229 238 248 257 263
148 160 164 161 158 154 160 156 148 141 139 135 132 141 148 171 181 178 171 170 178 193 199 202 207 228 246 221 218 233 252 264 252 235 237 250 261 262 240 232 241 250 269
139 140 147 154 158 159 157 146 137 136 138 130 117 111 118 94 58 158 169 167 173 181 173 180 187 203 233 210 215 226 247 268 272 278 275 289 291 291 253 230 240 246 260
86 90 96 119 131 135 129 123 125 126 122 116 108 91 80 66 57 76 140 163 172 164 163 141 84 111 109 108 181 214 235 240 261 316 350 350 353 345 329 281 251 246 252
81 80 81 88 102 109 111 111 113 118 116 112 106 92 74 65 62 69 86 98 111 121 122 104 86 91 87 75 84 76 69 77 53 41 22 358 346 338 328 324 308 282 266
77 75 75 79 79 82 92 96 95 98 103 100 96 87 69 57 52 57 70 80 87 97 88 85 81 76 68 60 52 50 53 65 64 47 12 342 330 328 335 332 336 331 309
80 77 77 79 76 71 71 73 81 83 93 95 95 91 81 65 48 40 59 76 80 88 83 71 69 67 66 55 47 47 50 54 63 48 6 345 345 354 356 348 336 335 322
78 78 78 80 84 78 71 62 68 59 76 93 91 90 88 74 45 61 81 78 86 96 92 73 63 58 55 49 45 43 40 38 37 26 16 2 353 354 349 348 340 334 323
83 78 80 83 85 89 90 78 62 67 65 66 70 81 71 74 77 78 77 73 73 86 86 73 66 61 55 45 39 32 30 26 19 17 14 2 348 341 337 339 336 328 320
88 87 85 86 90 91 93 96 89 68 62 60 60 67 74 72 70 74 78 75 67 73 76 72 66 59 52 46 41 35 24 14 15 18 12 1 352 347 343 339 334 328 323
86 87 88 86 87 89 90 90 92 92 82 63 53 58 65 66 64 63 69 75 63 60 66 66 61 53 46 42 36 29 19 14 14 7 1 356 351 346 340 333 327 323 319
84 86 86 86 84 86 86 86 85 84 83 77 68 55 54 64 61 54 57 68 70 65 61 60 55 50 43 36 29 21 15 11 5 357 352 348 344 339 332 326 320 319 318
79 86 87 86 84 83 82 84 84 83 80 74 66 55 46 58 61 53 54 61 65 62 59 57 49 44 36 27 18 10 6 2 356 352 345 342 336 330 325 323 321 319 316
84 85 84 84 83 83 84 84 84 83 79 74 64 52 57 69 66 59 55 54 56 55 51 48 41 32 25 16 8 2 358 352 349 343 339 334 330 326 323 320 319 317 313
86 85 84 86 86 84 84 84 84 84 81 78 69 57 54 62 62 59 52 46 44 44 45 47 41 29 17 8 360 353 349 346 343 337 331 327 324 321 320 319 319 320 318
89 90 88 87 88 87 84 82 81 81 79 76 72 65 59 58 56 53 48 41 38 36 36 38 35 24 15 10 6 358 344 336 330 323 320 320 321 319 318 316 315 316 315
91 92 93 91 89 89 88 84 81 80 78 75 69 64 59 54 52 50 47 42 40 39 36 33 30 20 13 7 2 357 349 337 329 319 313 308 310 312 313 313 313 313 313
91 92 93 94 94 93 90 86 82 79 75 71 67 62 57 54 50 46 41 37 38 35 29 25 19 14 9 6 2 355 349 347 343 332 317 307 306 308 312 313 315 316 317
92 93 93 93 93 94 93 91 87 83 78 73 68 63 57 52 47 42 36 32 28 24 20 16 12 10 7 5 360 356 355 354 351 345 331 315 313 315 320 317 320 321 322
Height
1481 1484 1487 1490 1494 1498 1502 1507 1512 1517 1521 1525 1529 1533 1536 1540 1543 1545 1547 1550 1552 1553 1555 1557 1559 1560 1562 1563 1564 1565 1566 1566 1566 1567 1567 1568 1568 1568 1568 1568 1568 1568 1569
1479 1481 1484 1487 1490 1494 1498 1502 1507 1512 1517 1521 1525 1529 1532 1536 1539 1541 1544 1546 1548 1550 1552 1554 1555 1557 1558 1559 1560 1561 1562 1562 1563 1563 1563 1563 1564 1564 1564 1564 1564 1564 1564
1477 1479 1482 1484 1488 1491 1495 1499 1503 1508 1512 1517 1521 1525 1528 1532 1535 1537 1540 1542 1544 1547 1548 1550 1551 1553 1554 1555 1556 1557 1558 1558 1559 1559 1559 1559 1559 1560 1560 1559 1559 1559 1559
1475 1477 1480 1482 1485 1488 1492 1496 1501 1505 1509 1513 1517 1522 1525 1528 1531 1533 1536 1538 1541 1543 1544 1546 1548 1549 1550 1551 1552 1553 1554 1554 1554 1555 1555 1555 1555 1555 1555 1555 1554 1554 1554
1475 1477 1479 1481 1484 1487 1491 1494 1499 1503 1506 1510 1515 1518 1522 1524 1527 1530 1532 1534 1536 1538 1540 1542 1544 1545 1546 1547 1548 1549 1550 1550 1550 1550 1550 1550 1550 1550 1550 1550 1549 1549 1548
1475 1477 1479 1481 1484 1486 1490 1493 1497 1500 1504 1508 1512 1515 1518 1521 1523 1526 1528 1530 1532 1534 1536 1538 1539 1541 1542 1543 1544 1545 1545 1546 1545 1546 1545 1545 1545 1545 1545 1545 1544 1543 1542
1475 1477 1479 1481 1484 1487 1490 1492 1495 1499 1502 1506 1509 1512 1515 1518 1521 1523 1525 1527 1529 1530 1532 1534 1535 1536 1537 1538 1539 1540 1540 1541 1541 1541 1541 1541 1541 1541 1541 1540 1539 1538 1537
1475 1477 1479 1482 1484 1487 1489 1492 1495 1498 1501 1504 1507 1510 1513 1515 1518 1520 1522 1524 1525 1526 1528 1529 1531 1532 1533 1534 1535 1535 1536 1536 1537 1536 1536 1536 1536 1536 1536 1535 1534 1532 1531
1475 1477 1480 1482 1484 1486 1489 1491 1495 1497 1500 1503 1506 1508 1511 1513 1515 1517 1519 1520 1521 1523 1524 1525 1526 1527 1529 1530 1530 1530 1531 1531 1532 1532 1531 1531 1531 1530 1530 1529 1528 1527 1524
1475 1477 1479 1481 1483 1486 1488 1491 1494 1496 1499 1501 1504 1506 1508 1510 1512 1514 1516 1517 1518 1519 1520 1521 1522 1523 1524 1525 1525 1525 1525 1526 1526 1526 1526 1525 1525 1524 1524 1523 1522 1520 1518
1475 1476 1478 1480 1482 1485 1487 1490 1492 1495 1497 1500 1502 1504 1506 1507 1509 1510 1512 1513 1514 1515 1516 1517 1518 1519 1519 1520 1521 1521 1520 1521 1521 1521 1520 1520 1520 1519 1518 1517 1516 1515 1513
1475 1476 1477 1479 1482 1484 1486 1489 1491 1494 1496 1498 1500 1502 1503 1505 1506 1508 1509 1510 1511 1512 1513 1514 1515 1516 1516 1516 1517 1517 1517 1516 1516 1516 1515 1515 1514 1514 1513 1512 1511 1510 1509
1475 1476 1478 1480 1482 1484 1486 1489 1491 1493 1495 1497 1499 1501 1502 1504 1505 1506 1507 1508 1509 1510 1511 1512 1513 1513 1513 1513 1513 1513 1513 1513 1513 1512 1512 1511 1511 1509 1508 1508 1507 1505 1504
1477 1478 1480 1481 1483 1485 1487 1490 1492 1494 1496 1497 1499 1501 1503 1504 1505 1507 1507 1508 1509 1509 1510 1511 1511 1512 1512 1512 1512 1511 1511 1510 1510 1509 1509 1509 1508 1506 1505 1503 1502 1500 1499
1479 1480 1482 1484 1486 1487 1489 1492 1494 1496 1498 1500 1501 1503 1504 1505 1506 1508 1508 1509 1509 1510 1510 1511 1511 1511 1511 1511 1510 1510 1509 1509 1508 1507 1506 1506 1505 1503 1501 1500 1498 1496 1494
1482 1484 1486 1487 1489 1491 1492 1494 1497 1499 1501 1502 1504 1505 1506 1507 1508 1509 1509 1510 1510 1510 1510 1510 1510 1510 1510 1509 1509 1509 1508 1507 1506 1505 1504 1503 1502 1500 1498 1496 1494 1492 1490
1486 1488 1490 1491 1493 1495 1497 1498 1500 1502 1504 1505 1506 1507 1508 1509 1510 1510 1510 1510 1510 1510 1510 1509 1509 1509 1509 1509 1509 1508 1507 1506 1504 1503 1502 1500 1499 1497 1495 1493 1491 1489 1486
1491 1493 1494 1495 1497 1499 1500 1502 1503 1505 1506 1508 1509 1510 1511 1511 1511 1511 1511 1511 1510 1510 1510 1509 1509 1509 1509 1508 1508 1507 1506 1505 1503 1501 1500 1498 1496 1494 1492 1490 1488 1485 1483
1496 1497 1498 1500 1501 1503 1504 1506 1507 1508 1509 1510 1511 1512 1513 1513 1512 1512 1512 1511 1511 1510 1510 1510 1509 1509 1508 1508 1507 1506 1504 1503 1501 1499 1498 1496 1493 1491 1489 1487 1485 1482 1480
1500 1502 1503 1504 1505 1506 1508 1509 1510 1511 1512 1513 1514 1514 1514 1514 1513 1513 1512 1512 1512 1511 1511 1511 1510 1510 1509 1508 1506 1505 1503 1501 1499 1497 1495 1493 1491 1489 1486 1484 1482 1479 1477
1505 1506 1507 1508 1509 1510 1511 1512 1513 1514 1514 1515 1516 1516 1516 1515 1515 1514 1514 1514 1513 1513 1512 1512 1511 1510 1508 1507 1505 1503 1501 1499 1497 1495 1493 1491 1489 1486 1484 1481 1479 1476 1474
1508 1509 1510 1511 1512 1513 1514 1515 1516 1516 1517 1517 1518 1518 1518 1517 1517 1516 1515 1515 1514 1514 1513 1512 1511 1509 1508 1506 1504 1502 1500 1497 1495 1493 1491 1488 1486 1484 1481 1479 1476 1473 1471
1512 1513 1513 1514 1515 1516 1517 1517 1518 1519 1519 1519 1520 1519 1519 1519 1518 1517 1517 1516 1515 1514 1513 1512 1510 1509 1507 1505 1503 1500 1498 1496 1493 1491 1489 1486 1483 1481 1478 1476 1473 1470 1468
1515 1516 1517 1517 1518 1519 1519 1520 1520 1521 1521 1521 1521 1521 1521 1520 1520 1519 1518 1517 1516 1514 1513 1511 1510 1508 1506 1504 1501 1499 1497 1494 1492 1489 1487 1484 1481 1478 1476 1473 1471 1468 1465
1518 1519 1520 1520 1521 1521 1522 1522 1522 1523 1523 1523 1523 1523 1522 1522 1521 1520 1519 1518 1516 1515 1513 1511 1509 1507 1505 1503 1501 1498 1496 1493 1491 1488 1485 1482 1479 1476 1474 1471 1468 1466 1463
1521 1522 1523 1523 1524 1524 1524 1524 1524 1525 1525 1525 1525 1524 1524 1523 1522 1521 1520 1518 1517 1515 1513 1511 1509 1507 1505 1502 1500 1498 1495 1492 1489 1486 1483 1481 1478 1475 1472 1469 1466 1464 1461